Weather Roundup
Issued by NWS Corpus Christi, TX

Home | Current Version | Previous Version | Text Only | Print | Product List | Glossary On
Versions: 1 2 3 4 5 6 7 8 9 10 11 12 13 14 15 16 17 18 19 20 21 22 23 24 25 26 27 28 29 30 31 32 33 34 35 36 37 38 39 40 41 42 43 44 45 46 47 48 49 50
000
ASUS44 KCRP 161810
HRRCRP

SOUTH TEXAS REGIONAL WEATHER ROUNDUP
NATIONAL WEATHER SERVICE CORPUS CHRISTI TX
100 PM CDT WED APR 16 2014


TXZ229>244-161900-
...CORPUS CHRISTI AREA OBSERVATIONS...

CITY           SKY/WX    TMP DP  RH WIND       PRES   REMARKS
CORPUS CHRISTI PTSUNNY   72  46  39 SE17G25   30.07F
NAS CORPUS CHR PTSUNNY   71  51  49 SE18G25   30.08F
ROCKPORT       PTSUNNY   70  50  49 SE16      30.09F
KINGSVILLE NAS PTSUNNY   72  49  44 SE13G23   30.07F
ALICE          FAIR      72  45  37 S10G24    30.06F
FALFURRIAS     FAIR      75  48  37 SE14G20   30.05F
$$

...VICTORIA AREA OBSERVATIONS...

CITY           SKY/WX    TMP DP  RH WIND       PRES   REMARKS
VICTORIA       PTSUNNY   70  47  43 SE22G30   30.09F
BEEVILLE       FAIR      72  44  36 SE15G25   30.07F
PLEASANTON     HVY RAIN  69  41  35 S9        30.08F
SAN ANTONIO    FAIR      67  41  38 S10G22    30.07F
$$

...LAREDO AREA OBSERVATIONS...

CITY           SKY/WX    TMP DP  RH WIND       PRES   REMARKS
LAREDO         FAIR      71  40  32 S10G22    30.05F
COTULLA        FAIR      70  38  31 SE17G23   30.04F
DEL RIO        FAIR      69  35  28 SE17G29   29.98F
MCALLEN        FAIR      74  49  41 SE15G22   30.04F
HEBBRONVILLE   FAIR      69  40  34 SE14G22   30.06F
$$

...OTHER TEXAS OBSERVATIONS...

CITY           SKY/WX    TMP DP  RH WIND       PRES   REMARKS
BROWNSVILLE    PTSUNNY   72  52  49 SE16      30.06F
HOUSTON        PTSUNNY   63  42  46 E15G24    30.16F
COL. STATION   FAIR      64  44  48 SE16G23   30.11F
AUSTIN         FAIR      66  42  41 SE15      30.08F
WACO           FAIR      64  40  41 S20G31    30.08F
FORT WORTH     PTSUNNY   64  33  31 S25G35    30.04F
WICHITA FALLS  FAIR      67  26  21 S25G36    29.93F
LUBBOCK        FAIR      71  15  11 S15G22    29.85F
EL PASO        MOSUNNY   76  12   8 W13       29.88F
$$

...MARINE OBSERVATIONS...

STATION/POSITION TIME  SKY/WX   TEMP    WIND        PRES    VSBY  WAVE   SWELL
                                AIR SEA DIR/SP/G                  HT/PER HT/PER
                 (UTC)          (F)     (DEG/KT/KT) (MB)    (MI)  (FT/S) (FT/S)
PORT ARANSAS     1800            63 65  130/ 15/ 17 1019.0F
BUOY 90 E PORT A NOT AVBL
BUOY 45 SE BAFFI 1800            65 69  120/ 14/ 16 1018.6F         3/ 7   2/ 7
BUOY 200 E PT IS NOT AVBL
BUOY 15 E GALVES 1800            60 66  110/ 10/ 16 1021.3F         3/ 5   2/ 5
$$


USA.gov is the U.S. government's official web portal to all federal, state and local government web resources and services.